Hourly Weather Roundup
Issued by NWS Central Illinois

Home | Current Version | Previous Version | Text Only | Print | Product List | Glossary On
Versions: 1 2 3 4 5 6 7 8 9 10 11 12 13 14 15 16 17 18 19 20 21 22 23 24 25 26 27 28 29 30 31 32 33 34 35 36 37 38 39 40 41 42 43 44 45 46 47 48 49 50
000
NZUS43 KILX 231210
HWRILX

AREA WEATHER ROUNDUP
NATIONAL WEATHER SERVICE, LINCOLN IL
600 AM CST THU FEB 23 2017


CITY           SKY/WX    TMP DP  RH WIND       PRES   REMARKS
BLOOMINGTON    FOG       42  42 100 SW3       29.75S VSB 1/4
6HR MIN TEMP:  42; 6HR MAX TEMP:  56;

CHAMPAIGN      FOG       44  42  93 CALM      29.73F VSB 1/4
6HR MIN TEMP:  44; 6HR MAX TEMP:  55;

DECATUR        FOG       43  42  97 CALM      29.73F VSB 1/4
6HR MIN TEMP:  42; 6HR MAX TEMP:  57;

EFFINGHAM      FOG       49  49 100 SE5       29.76F VSB 1/4
6HR MIN TEMP:  48; 6HR MAX TEMP:  57;

FLORA          FOG       50  50  98 CALM      29.77R VSB<1/4
6HR MIN TEMP:  49; 6HR MAX TEMP:  58;

GALESBURG      CLOUDY    40  40 100 N12       29.75R WCI  33
6HR MIN TEMP:  38; 6HR MAX TEMP:  50;

JACKSONVILLE   FOG       39  39 100 CALM      29.73S VSB 1/2
6HR MIN TEMP:  39; 6HR MAX TEMP:  56;

LACON          CLEAR     42  42  98 CALM      29.74R
6HR MIN TEMP:  40; 6HR MAX TEMP:  55;

LAWRENCEVILLE  CLEAR     51  51 100 S8        29.78R
6HR MIN TEMP:  50; 6HR MAX TEMP:  54;

LITCHFIELD     FOG       46  46 100 CALM      29.73S VSB 1/4
6HR MIN TEMP:  45; 6HR MAX TEMP:  54;

$$


CITY           SKY/WX    TMP DP  RH WIND       PRES   REMARKS
LINCOLN        FOG       43  43 100 CALM      29.74S VSB<1/4
6HR MIN TEMP:  41; 6HR MAX TEMP:  55;

MACOMB         CLEAR     40  39  97 N6        29.77R
6HR MIN TEMP:  40; 6HR MAX TEMP:  49;

MATTOON        PTCLDY    52  52 100 S5        29.73F FOG
6HR MIN TEMP:  52; 6HR MAX TEMP:  58;

MT CARMEL AP   CLEAR     54  52  95 S5        29.78R
6HR MIN TEMP:  52; 6HR MAX TEMP:  58;

OLNEY-NOBLE AP FOG       52  52 100 CALM      29.77S VSB 1/2
PARIS          CLEAR     51  51  99 SW7       29.76S
6HR MIN TEMP:  51; 6HR MAX TEMP:  56;

PEORIA         CLEAR     47  44  90 N3        29.74R
6HR MIN TEMP:  43; 6HR MAX TEMP:  50;

PONTIAC        PTCLDY    45  44  99 CALM      29.74S
6HR MIN TEMP:  45; 6HR MAX TEMP:  57;

RANTOUL        FOG       47  47  99 W3        29.74S VSB 1/4
6HR MIN TEMP:  45; 6HR MAX TEMP:  59;

SPRINGFIELD    FOG       46  45  96 CALM      29.75R VSB<1/4
6HR MIN TEMP:  42; 6HR MAX TEMP:  57;

TAYLORVILLE    FOG       49  49 100 CALM      29.74R VSB 1/4
6HR MIN TEMP:  48; 6HR MAX TEMP:  56;

$$

...REGIONAL REPORTS...


CITY           SKY/WX    TMP DP  RH WIND       PRES   REMARKS
CHICAGO O`HARE CLEAR     49  42  77 NW7       29.72R
KANKAKEE       FOG       39  39  98 CALM      29.74S VSB 1/2
MOLINE         CLOUDY    45  41  86 N14G21    29.75R
MOUNT STERLING CLEAR     45  43  93 NE7       29.72F
MOUNT VERNON   NOT AVBL
PITTSFIELD     CLOUDY    49  46  92 NE7       29.73S
QUINCY         CLOUDY    44  41  89 NE9       29.71F
ROCKFORD       CLEAR     42  38  85 NW6       29.75S
$$


CITY           SKY/WX    TMP DP  RH WIND       PRES   REMARKS
BURLINGTON     CLOUDY    43  42  97 N13       29.75S
CEDAR RAPIDS   CLOUDY    42  39  89 N14       29.78R WCI  35
DES MOINES     CLOUDY    40  36  86 NE16      29.80F WCI  31
KIRKSVILLE     MOCLDY    42  38  85 N10       29.74R
OTTUMWA        CLOUDY    42  39  89 N12G22    29.78R
ST LOUIS       MOCLDY    51  49  92 CALM      29.72F
$$


CITY           SKY/WX    TMP DP  RH WIND       PRES   REMARKS
TERRE HAUTE    FOG       48  47  96 S3        29.76S VSB 3/4
EVANSVILLE     CLEAR     54  52  93 CALM      29.80S
INDIANAPOLIS   MOCLDY    53  52  96 SW7       29.76S
LAFAYETTE      CLEAR     50  50 100 W5        29.74R FOG
MADISON        CLOUDY    45  38  76 NW13      29.73R
MILWAUKEE      CLEAR     48  40  73 NW8       29.71R
$$






USA.gov is the U.S. government's official web portal to all federal, state and local government web resources and services.